Lid_Strength_Index
3 4 7 7 11 12 14 13 12 10 10 7 6 7 9 8 10 12 3 1 -0 -0 -1 -1 -1 -1 -1 -2 -2 -2 -2 -2 -2 -2 -2 -2 -3 -2 -2 -3 -2 -2 -2 -2 -2 -2 -2 -2 -2
4 5 7 9 12 15 15 13 11 9 7 6 6 7 8 10 5 4 3 2 -0 -0 -1 -1 -1 -2 -2 -2 -2 -2 -2 -2 -2 -2 -2 -2 -3 -3 -2 -2 -3 -2 -2 -2 -2 -2 -2 -2 -2
5 6 9 11 14 16 15 11 10 9 8 7 8 6 7 8 4 4 1 -0 -0 -0 -1 -1 -1 -2 -2 -2 -2 -2 -2 -2 -3 -2 -2 -2 -2 -2 -2 -2 -2 -2 -2 -2 -2 -2 -2 -2 -2
7 8 9 12 14 13 11 10 10 10 10 6 7 9 6 3 4 2 0 -0 -0 -0 -1 -1 -2 -2 -2 -3 -3 -3 -2 -3 -3 -2 -2 -2 -2 -2 -3 -2 -2 -2 -2 -2 -2 -2 -2 -2 -2
7 10 12 14 13 14 11 10 10 10 10 8 7 11 9 3 1 1 0 0 0 0 -0 -1 -2 -2 -3 -3 -3 -3 -3 -3 -3 -3 -3 -3 -2 -2 -2 -2 -2 -2 -2 -2 -2 -2 -2 -2 -2
9 10 14 15 13 14 11 9 10 10 9 8 8 8 8 2 2 2 1 1 0 -0 -0 -1 -0 -1 -2 -2 -3 -3 -3 -3 -3 -3 -3 -3 -4 -2 -2 -2 -2 -2 -2 -2 -2 -2 -2 -2 -2
10 12 14 13 13 14 11 9 10 10 10 9 6 10 7 4 2 1 1 1 0 -0 0 0 -0 -1 -1 -2 -2 -3 -2 -2 -3 -2 -2 -2 -3 -2 -2 -2 -2 -2 -2 -2 -2 -2 -2 -2 -2
9 11 13 13 13 13 11 10 10 10 9 6 5 9 8 4 2 1 1 1 1 0 0 0 0 -0 -0 -0 -1 -1 -2 -2 -2 -2 -2 -1 -2 -2 -2 -1 -2 -2 -2 -2 -2 -2 -2 -2 -2
7 12 13 13 13 13 10 11 10 9 8 7 6 6 4 2 2 2 2 2 2 1 0 0 0 0 -0 0 1 -0 -1 -1 -1 -1 -0 0 1 0 -0 -0 -1 -2 -2 -2 -2 -2 -2 -1 -1
9 12 11 9 10 11 10 11 10 9 9 8 7 5 3 3 3 3 3 3 3 2 1 0 1 0 0 -0 1 0 -0 0 -0 0 0 0 0 0 0 1 -1 -2 -2 -2 -2 -2 -1 0 1
9 11 9 10 10 10 10 11 11 10 11 8 7 6 4 4 4 3 4 3 2 2 1 1 1 0 0 1 1 1 1 1 1 0 0 0 0 1 1 1 1 1 1 1 1 1 1 2 2
10 8 8 8 10 10 10 10 11 10 10 8 5 4 4 4 4 4 4 3 3 2 2 1 1 1 1 0 0 0 1 1 1 1 1 1 2 2 2 2 2 2 2 2 2 2 2 2 2
9 8 8 10 10 11 10 12 11 12 12 5 4 4 5 4 4 3 3 3 3 2 2 2 2 1 1 1 1 0 0 0 0 1 1 1 2 2 2 2 2 2 2 2 2 2 2 3 2
7 7 9 10 10 10 11 12 11 11 9 6 5 5 5 4 4 4 3 3 3 2 2 1 1 1 1 2 0 0 0 0 1 1 1 2 2 1 2 2 1 1 1 2 2 2 2 2 2
7 10 11 12 11 11 11 13 12 11 8 6 6 5 5 4 4 4 3 3 3 2 2 1 1 1 2 2 1 1 0 0 1 1 1 1 1 1 1 2 2 2 2 2 2 2 2 2 2
10 9 13 10 12 11 11 14 11 10 11 7 7 6 5 5 4 3 2 2 3 3 3 2 1 1 1 1 1 1 1 1 1 1 1 1 1 1 2 2 2 2 2 2 2 2 2 2 3
11 15 13 11 11 11 11 13 9 9 10 11 11 8 6 5 4 3 2 2 2 3 2 2 1 1 1 1 1 1 1 2 2 2 1 1 1 1 2 2 2 2 2 2 2 2 2 3 3
16 14 12 12 12 12 13 12 10 11 9 9 10 11 10 5 5 3 2 2 2 3 2 2 1 1 1 1 2 2 2 2 1 2 1 1 1 1 1 2 2 2 2 2 2 2 3 3 3
11 13 13 11 11 13 13 13 11 10 11 11 10 10 10 9 6 3 2 2 2 3 3 2 2 1 1 2 2 2 2 2 1 1 1 1 1 1 1 2 2 2 2 2 2 3 3 4 4
11 13 13 12 11 12 13 13 12 11 10 10 10 10 10 9 9 7 4 3 3 4 3 3 2 2 1 1 1 1 1 1 1 1 1 1 1 1 1 1 1 2 2 2 2 3 4 3 3
13 13 13 13 13 13 13 14 13 11 11 10 9 9 9 9 9 9 6 4 3 4 4 3 2 2 2 1 1 3 3 3 2 1 1 1 2 1 1 1 1 2 2 2 2 3 3 4 2
14 10 11 12 12 17 13 18 16 13 12 11 9 10 9 9 9 8 8 5 3 3 3 3 3 2 2 1 1 2 2 3 1 1 0 1 1 2 1 1 1 1 2 2 2 2 3 4 4
13 10 11 12 13 15 16 17 16 15 14 13 11 9 8 8 8 9 8 7 4 3 3 3 3 3 2 2 1 1 2 1 1 1 2 1 1 1 1 1 1 1 1 2 3 4 4 3 4
9 11 11 12 14 18 16 16 17 15 14 13 12 11 9 9 8 7 7 8 6 5 4 3 3 3 3 2 2 2 2 2 2 2 2 1 1 1 1 1 1 1 1 2 2 3 3 2 2
10 13 19 20 20 20 16 17 14 13 12 12 12 12 11 10 10 9 9 9 8 6 5 4 3 3 2 3 3 2 2 2 2 2 2 2 2 1 1 1 1 1 1 2 2 3 3 3 2
13 13 18 22 21 20 17 18 14 11 10 11 11 12 12 12 11 11 10 10 10 8 5 3 3 2 2 2 3 2 2 2 2 2 2 2 2 1 1 1 1 1 1 1 2 3 3 2 2
13 15 11 18 22 21 19 17 14 13 12 12 11 13 13 13 13 12 12 11 11 10 9 5 4 3 3 3 2 2 2 2 2 2 2 2 2 1 1 1 1 1 1 1 2 2 3 3 3
11 10 16 17 23 24 20 20 17 15 14 13 13 13 13 13 12 12 12 11 11 12 10 8 5 4 4 4 4 3 2 2 2 2 2 2 2 1 2 2 1 2 2 1 2 2 2 3 3
13 14 13 14 17 19 22 19 15 13 12 13 13 12 12 12 13 12 11 11 11 11 11 11 11 10 9 7 6 5 4 3 3 2 2 2 2 2 2 2 2 2 2 2 2 2 2 3 3
10 12 14 16 18 19 18 18 14 12 11 12 13 12 12 12 12 12 12 12 11 11 11 11 11 11 10 10 10 10 9 7 5 3 3 3 2 1 1 2 2 2 2 2 3 3 3 3 4